User: anonymous   Login
Location: The Jewett Observatory
(46.7288°N, 117.1525°W)
Time: 01:02:14
(UTC-08:00)
Language:

Cosmos 1844 Rocket - Orbit

View from above orbital plane
View from above orbital plane
View from above satellite
View from above satellite

Ground track
Ground track

The orbit data is extracted from the following two-line orbital elements,

1 17974U 87041B   17055.69666012 -.00000234  00000-0 -91923-4 0  9991
2 17974  71.0087 146.8493 0015167 213.5338 256.0847 14.17217701540746
Epoch (UTC): 24 February 2017 16:43:11
Eccentricity: 0.0015167
inclination: 71.0087°
perigee height: 824 km
apogee height: 846 km
right ascension of ascending node: 146.8493°
argument of perigee: 213.5338°
revolutions per day: 14.17217701
mean anomaly at epoch: 256.0847°
orbit number at epoch: 54074

The dashed part of the orbit path shows where the satellite is in the earth's shadow,  

DLR